SCP
0 0 0 0 0 0 0 0 0 0 0 0 0 0 0 0 0 0 0 0 0 0 0 0 0 0 0 0 0 0 0 0 0 0 0 0 0 0 0 0 0 0 0
0 0 0 0 0 0 0 0 0 0 0 0 0 0 0 0 0 0 0 0 0 0 0 0 0 0 0 0 0 0 0 0 -0 -0 -0 0 0 0 0 0 0 0 0
0 0 0 0 0 0 0 0 0 0 0 0 0 0 0 0 0 0 0 0 0 0 0 0 0 0 0 0 0 0 0 0 -0 -0 -0 -0 0 0 0 0 0 0 0
0 0 0 0 0 0 0 0 0 0 0 0 0 0 0 0 0 0 0 0 0 0 0 0 0 0 0 0 0 0 0 0 0 0 0 0 0 0 0 0 0 0 0
0 0 0 0 0 0 0 0 0 0 0 0 0 0 0 0 0 0 0 0 0 0 0 0 -0 -0 0 0 0 0 0 0 0 0 0 0 0 0 0 0 0 0 0
0 0 0 0 0 0 0 0 0 0 0 0 0 0 0 0 0 0 0 0 0 0 -0 -0 -0 -0 -0 -0 -0 -0 0 0 0 0 0 0 0 0 0 0 0 0 0
0 0 0 0 0 0 0 0 0 0 0 0 0 0 0 0 0 0 0 0 0 0 -0 -0 -0 -0 -0 -0 0 0 0 0 0 0 -0 0 0 0 0 0 0 0 0
0 0 0 0 0 0 0 0 0 0 0 0 0 0 0 0 0 0 0 0 0 -0 -0 -0 -0 -0 -0 -0 0 0 0 0 0 0 0 0 0 0 0 0 0 0 0
0 0 0 0 0 0 0 0 0 0 0 0 0 0 0 0 0 0 0 0 -0 -0 -0 -0 -0 -0 -0 0 0 0 0 0 0 0 0 0 0 0 0 0 0 0 0
0 0 0 0 0 0 0 0 0 0 0 0 0 0 0 0 0 0 0 0 0 0 -0 -0 -0 -0 -0 0 0 0 0 0 0 0 0 0 0 0 0 0 0 0 0
0 0 0 0 0 0 0 0 0 0 0 0 0 0 0 0 0 0 0 0 0 0 0 -0 0 0 0 0 0 0 0 0 0 0 0 0 0 0 0 0 0 0 0
0 0 0 0 0 0 0 0 0 0 0 0 0 0 0 0 0 0 0 0 0 0 0 0 0 0 -0 0 0 0 0 0 0 0 0 0 0 0 0 0 0 0 0
0 0 0 0 0 0 0 0 0 0 0 0 0 0 0 0 0 0 0 0 0 0 0 0 0 0 0 0 0 0 0 0 0 0 0 0 0 0 0 0 0 0 0
0 0 0 0 0 0 0 0 0 0 0 0 0 0 0 0 0 0 0 0 0 0 0 0 0 0 0 0 0 0 0 0 0 0 0 0 0 0 0 0 0 0 0
0 0 0 0 0 0 0 0 0 0 0 0 0 0 0 0 0 0 0 0 0 0 0 0 0 0 0 0 0 0 0 0 0 0 0 0 0 0 0 0 0 0 0
0 0 0 0 0 0 0 0 0 0 0 0 0 0 0 0 0 -0 0 0 0 0 0 0 0 0 0 0 0 0 0 0 0 0 0 0 0 0 0 0 0 0 0
0 0 0 0 0 0 0 0 0 0 0 0 0 0 0 0 0 0 0 0 0 0 0 0 0 0 0 0 0 0 0 0 0 0 0 0 0 0 0 0 0 0 0
0 0 0 0 0 0 0 0 0 0 0 0 0 0 0 0 0 0 0 0 0 0 0 0 0 0 0 0 0 0 -0 0 0 0 0 0 0 0 0 0 0 0 0
0 0 0 0 0 0 0 0 0 0 0 0 0 0 0 0 0 0 0 0 0 0 0 0 0 0 0 0 0 0 -0 -0 -0 0 0 0 0 0 0 0 0 0 0
0 0 0 0 0 0 0 0 0 0 0 0 0 0 0 0 0 0 0 0 0 0 0 0 0 0 0 0 0 0 -0 -0 -0 0 0 0 0 0 0 0 0 0 0
0 0 0 0 0 0 0 0 0 0 0 0 0 0 0 0 0 0 0 0 0 0 0 0 0 0 0 0 0 0 0 -0 -0 -0 0 0 0 0 0 0 0 0 0
0 0 0 0 0 0 0 0 0 0 0 0 0 0 0 0 0 0 0 0 0 0 0 0 0 0 0 0 0 0 0 -0 -0 -0 -0 0 0 0 0 0 0 0 0
0 0 0 0 0 0 0 0 0 0 0 0 0 0 0 0 0 0 0 0 0 0 0 0 0 0 0 0 0 0 0 0 -0 -0 -0 0 0 0 0 0 0 0 0
0 0 0 0 0 0 0 0 0 0 0 0 0 0 0 0 0 0 0 0 0 0 0 0 0 0 0 0 0 0 0 0 -0 -0 -0 0 0 0 0 0 0 0 0
0 0 0 0 0 0 0 0 0 0 0 0 0 0 0 0 0 0 0 0 0 0 0 0 0 0 0 0 0 0 0 0 0 -0 -0 0 0 0 0 0 0 0 0
0 0 0 0 0 0 0 0 0 0 0 0 0 0 0 0 0 0 0 0 0 0 0 0 0 0 0 0 0 0 0 0 0 0 -0 -0 0 0 0 0 0 0 0
Wind_Speed
10 11 12 12 13 13 13 12 12 12 12 12 11 11 12 12 12 11 10 11 11 11 11 11 12 12 9 8 9 9 9 9 11 11 10 8 7 3 3 6 5 3 5
12 12 13 13 14 13 13 12 12 12 12 11 12 11 11 10 10 11 9 11 12 13 13 12 13 11 10 10 9 9 9 9 9 10 8 8 7 3 4 7 6 4 5
13 14 14 14 14 14 14 14 13 11 10 12 12 13 13 12 10 9 9 11 11 12 12 12 12 12 11 10 10 9 9 8 7 8 8 5 2 3 6 7 7 5 7
14 13 13 13 13 13 13 12 12 11 11 13 13 12 12 12 10 11 12 14 14 14 14 9 11 12 12 13 11 10 9 9 8 8 7 4 2 4 6 7 7 6 7
11 11 10 9 10 11 12 12 11 11 11 12 12 12 12 10 10 14 15 16 16 14 11 8 11 15 20 17 14 10 9 8 8 7 6 5 4 7 6 5 9 7 8
7 7 8 10 10 11 12 12 10 10 11 11 11 12 11 8 15 20 18 17 16 15 10 9 12 15 17 21 23 21 17 12 9 8 7 5 7 8 8 7 9 5 5
9 10 9 10 12 12 10 10 10 11 12 12 12 12 12 10 14 19 23 17 14 12 10 10 10 11 16 15 19 21 18 17 13 8 7 7 9 10 11 8 7 8 7
8 8 10 10 10 10 10 9 10 10 11 11 11 10 9 9 14 19 24 16 11 10 8 10 11 12 14 17 15 11 9 8 9 7 4 7 9 11 11 12 13 13 11
10 10 9 8 8 9 9 10 10 10 11 12 12 11 12 11 14 19 20 13 12 11 8 10 12 13 17 20 13 9 2 5 7 9 12 14 16 19 18 14 12 13 11
10 8 6 6 7 8 9 9 10 11 10 11 11 11 12 13 14 18 20 12 12 11 9 10 15 18 18 17 12 10 7 5 10 13 16 17 16 17 17 13 12 12 13
6 5 5 6 7 8 10 9 9 10 10 10 10 11 12 14 14 17 19 14 13 12 10 9 11 20 16 14 12 10 10 8 12 13 12 11 10 10 11 9 8 9 11
4 5 6 6 7 8 10 9 9 10 10 10 10 10 10 11 14 16 18 17 15 12 9 8 12 18 13 11 10 12 13 9 7 9 10 9 9 9 10 11 10 9 10
7 7 7 7 8 9 10 9 8 10 11 11 11 9 10 11 12 15 16 17 15 14 10 14 17 15 12 7 10 13 11 7 7 8 9 9 9 11 13 13 13 13 12
9 8 8 7 5 8 7 8 9 9 11 12 13 12 11 12 13 15 14 13 15 13 12 13 15 12 12 9 6 8 7 8 8 8 9 10 11 11 11 12 11 10 9
8 7 7 7 7 8 8 6 6 7 7 9 11 13 12 12 14 16 14 13 13 14 11 8 9 9 9 8 6 7 7 8 9 8 8 9 10 10 10 10 10 10 11
9 9 7 7 8 8 9 6 3 4 5 2 5 10 11 10 13 16 17 15 16 17 8 8 8 9 8 9 7 6 7 8 8 8 8 9 9 10 11 10 11 10 11
8 9 8 8 9 10 10 10 8 2 7 4 7 11 12 12 13 14 17 16 10 12 9 8 8 8 8 8 7 5 6 8 8 7 8 8 9 9 10 10 11 12 12
8 5 8 8 9 10 10 10 10 10 8 9 12 11 13 12 12 15 14 13 11 10 9 9 8 8 8 8 7 5 5 7 8 7 7 8 9 9 9 11 11 12 13
10 10 9 8 9 9 10 10 10 10 10 11 12 13 14 11 9 14 13 11 9 8 8 8 8 7 8 7 7 6 4 8 9 7 8 8 8 8 8 11 11 11 12
8 8 8 8 9 10 10 10 10 11 12 12 11 12 13 13 12 11 11 9 8 8 8 7 7 7 7 7 7 6 5 5 9 8 7 7 7 7 8 11 12 11 10
8 8 7 9 10 10 10 11 11 11 12 11 10 12 15 12 10 11 9 9 8 8 7 7 7 6 6 7 7 6 5 4 4 9 8 7 7 6 7 8 9 11 11
8 8 9 10 10 10 10 11 11 12 13 12 11 13 16 12 11 10 9 8 8 7 6 6 6 5 6 6 6 5 4 4 5 5 7 7 7 9 9 9 10 10 11
8 9 10 10 10 10 10 11 11 12 12 11 11 11 11 10 9 9 8 8 8 7 6 6 6 7 6 4 4 4 3 2 4 6 8 8 9 10 9 9 11 12 12
9 9 10 10 9 10 11 11 12 13 13 11 11 11 10 9 9 9 9 9 8 8 8 7 7 8 9 6 5 4 2 2 1 4 10 10 10 10 9 9 10 13 12
9 9 10 10 10 10 11 11 12 13 12 11 11 11 11 11 10 10 10 10 10 9 9 9 8 9 11 10 8 7 6 6 4 3 7 10 11 11 9 10 10 11 13
9 10 10 10 10 10 10 11 12 12 11 10 10 11 11 10 11 11 11 11 10 10 10 9 11 12 12 10 10 9 8 7 7 6 5 9 11 10 9 8 12 11 12
Wind_Direction
346 342 336 332 328 321 314 314 317 321 323 329 329 320 316 311 305 298 294 299 303 299 294 290 287 285 279 272 265 259 256 251 258 259 262 274 289 282 109 103 85 63 37
338 331 327 324 321 318 320 327 332 330 331 320 308 327 328 314 311 310 309 307 304 298 296 292 284 281 274 269 263 260 258 253 253 260 265 275 268 200 145 113 88 49 31
329 327 327 330 335 335 338 337 325 314 308 306 320 320 312 308 301 300 302 298 289 284 284 290 298 292 280 275 267 256 251 250 248 250 252 252 214 152 127 106 78 45 21
338 339 349 355 346 336 327 311 304 305 307 313 314 314 317 318 331 331 310 291 287 288 289 288 291 293 283 278 276 266 249 236 233 238 237 225 171 141 137 119 95 62 41
353 355 356 340 324 313 313 315 318 319 322 322 330 336 339 342 3 341 323 312 308 302 302 311 294 293 295 298 296 284 264 235 220 219 220 204 166 154 141 127 112 98 54
341 342 343 333 323 322 326 334 338 349 350 347 348 345 341 352 4 342 331 316 306 308 314 318 309 305 306 305 300 289 274 250 219 208 214 191 160 148 132 143 131 121 79
355 352 346 332 332 337 341 356 1 357 354 349 349 354 346 6 5 343 331 312 301 303 329 329 314 316 312 307 300 286 267 247 224 211 213 172 159 147 136 133 107 94 98
341 342 338 348 351 2 7 1 353 348 351 349 353 357 350 21 14 353 334 319 319 337 355 331 324 321 319 321 309 288 247 217 202 201 201 159 145 138 125 114 107 102 94
350 356 355 357 359 8 6 1 354 345 356 355 355 1 359 4 11 356 342 334 346 341 346 341 337 328 328 332 332 329 249 155 130 109 97 107 119 123 122 118 118 116 106
10 9 359 357 359 360 355 352 350 346 358 354 358 11 7 356 1 355 346 342 345 333 344 347 340 333 332 345 356 1 25 92 107 93 91 93 102 110 112 116 126 122 123
24 21 3 357 348 354 347 349 347 346 350 349 6 10 0 353 355 353 344 344 347 337 349 342 334 331 339 353 10 23 26 64 99 101 102 101 100 99 100 100 108 120 127
360 349 345 345 345 350 340 342 347 352 345 351 9 9 350 351 351 352 340 337 345 340 355 343 332 333 351 13 25 32 31 46 86 100 103 102 102 101 100 99 100 96 110
323 332 335 337 349 345 351 354 360 2 352 360 359 10 354 353 352 350 344 339 351 349 359 351 343 344 356 28 42 42 39 44 69 87 95 97 99 102 100 99 101 109 116
316 330 331 327 340 343 4 3 3 12 359 1 355 3 360 356 360 351 349 349 352 354 355 352 351 354 6 11 52 68 64 59 63 78 89 96 99 101 102 110 114 118 119
329 329 342 345 355 352 4 15 9 39 20 9 8 2 2 358 356 350 350 353 351 343 348 359 358 3 4 360 37 75 78 79 75 77 85 94 99 103 106 114 116 114 110
360 8 17 359 4 5 359 18 88 117 122 82 58 27 7 4 346 350 353 347 349 339 359 14 2 2 4 1 13 63 80 88 89 91 94 98 105 112 119 121 120 117 117
16 6 7 12 8 5 1 359 359 98 129 98 67 41 3 351 352 353 351 340 6 0 8 23 9 360 1 1 358 24 77 88 95 96 104 110 115 121 124 124 123 123 122
11 13 3 14 14 2 1 3 360 355 14 10 37 25 358 356 6 355 353 352 15 19 8 10 12 2 359 360 358 15 82 96 95 98 98 108 119 122 125 127 128 132 134
24 15 2 13 17 5 7 8 8 2 15 15 12 6 358 357 25 4 2 11 6 7 2 3 6 0 357 358 358 15 66 100 108 97 89 95 103 114 122 122 122 122 121
60 35 352 15 19 14 16 14 12 10 20 23 14 7 358 2 10 11 6 6 2 2 359 359 359 359 357 360 5 19 52 87 117 116 104 100 104 107 113 121 124 121 108
35 42 17 24 27 21 17 18 16 20 28 22 17 19 359 1 8 10 5 359 358 357 357 354 351 352 356 0 9 17 39 76 92 117 120 116 116 119 125 127 123 122 124
35 37 33 31 31 27 21 25 21 27 33 25 12 13 9 7 9 7 358 351 351 351 349 347 343 347 353 357 3 7 23 90 101 99 111 129 136 132 133 134 133 127 130
40 42 45 37 32 29 30 34 33 32 34 25 16 11 9 4 357 352 347 346 347 346 344 346 351 357 357 343 344 7 24 71 140 151 146 135 128 130 139 140 136 135 139
49 47 47 47 35 35 32 34 40 44 36 23 16 12 4 356 351 349 349 348 349 351 353 357 358 359 0 1 13 35 54 80 95 126 128 124 130 138 144 140 139 140 145
51 49 48 45 38 36 39 38 40 45 39 23 16 12 8 2 356 353 352 353 354 357 360 2 2 3 9 18 35 57 64 58 36 66 121 125 127 131 136 133 135 142 147
55 52 50 48 43 38 38 40 40 45 43 30 21 16 11 4 358 357 356 357 360 4 6 7 8 13 17 27 42 48 48 50 44 39 98 124 129 132 135 136 135 144 144